Home   Weather   Lübeck   Past weeks

Flag for Germany Past Weather in Lübeck, Schleswig-Holstein, Germany — Yesterday and Last 2 Weeks

45 °F

Passing clouds.

Feels Like: 45 °F
Forecast: 41 / 51 °F
Wind: 2 mph from North

Location: Hamburg-Fuhlsbuettel

Current Time: Oct 23, 2016 at 3:36:19 AM

Latest Report: Oct 23, 2016 at 3:20 AM

Visibility: N/A

Pressure: 29.95 "Hg

Humidity: 100%

Dew Point: 45 °F

Location of LübeckLocation

Past Weather in Lübeck — Graph


Lübeck Temperature Yesterday

Maximum temperature yesterday: 48 °F (at 12:20 PM)
Minimum temperature yesterday: 41 °F (at 6:50 AM)
Average temperature yesterday: 45 °F

High & Low Weather Summary for the Past Weeks

High61 °F (Oct 18, 2:20 PM)100% (Oct 9, 1:20 AM)30.30 "Hg (Oct 9, 1:20 AM)
Low36 °F (Oct 9, 2:20 AM)58% (Oct 8, 3:50 PM)29.80 "Hg (Oct 15, 5:50 AM)
Average48 °F89%30.09 "Hg
* Reported Oct 8 2:20 AM — Oct 23 2:20 AM, Lübeck, Weather by CustomWeather, © 2016

Note: Actual official high and low records may vary slightly from our data, if they occured in-between our weather recording intervals... More about our weather records


Lübeck Weather History for the Previous 24 Hours

Scroll right to see more
Time TempWeatherWind HumidityBarometerVisibility
2:20 AM
Sun, Oct 23
45 °FPartly cloudy.2 mph100%29.95 "HgN/A
1:50 AM45 °FPassing clouds.5 mph100%29.95 "HgN/A
1:20 AM45 °FQuite cool.3 mph93%29.95 "HgN/A
12:50 AM45 °FLight rain. Partly cloudy.2 mph93%29.95 "HgN/A
12:20 AM45 °FLight rain. Passing clouds.2 mph93%29.95 "HgN/A
11:50 PM
Sat, Oct 22
45 °FLight rain. Partly cloudy.1 mph93%29.95 "HgN/A
11:20 PM45 °FLight rain. Partly cloudy.1 mph93%29.95 "HgN/A
10:50 PM45 °FLight rain. Passing clouds.3 mph93%29.95 "HgN/A
10:20 PM45 °FLight rain. Passing clouds.2 mph93%29.95 "HgN/A
9:50 PM45 °FLight rain. Passing clouds.3 mph93%29.95 "HgN/A
9:20 PM45 °FLight rain. Passing clouds.3 mph93%29.95 "HgN/A
8:50 PM45 °FLight rain. Passing clouds.1 mph93%29.95 "Hg5 mi
8:20 PM45 °FLight rain. Passing clouds.2 mph93%29.95 "Hg5 mi
7:50 PM45 °FLight rain. Passing clouds.5 mph100%29.95 "Hg5 mi
7:20 PM46 °FLight rain. Passing clouds.6 mph93%29.95 "HgN/A
6:50 PM46 °FLight rain. Passing clouds.6 mph93%29.95 "HgN/A
6:20 PM46 °FLight rain. Passing clouds.3 mph87%29.95 "HgN/A
5:50 PM46 °FPartly sunny.2 mph87%29.95 "HgN/A
5:20 PM48 °FScattered showers. Partly sunny.3 mph87%29.92 "HgN/A
4:50 PM48 °FLight rain. Partly sunny.5 mph87%29.92 "HgN/A
4:20 PM48 °FLight rain. Broken clouds.5 mph87%29.95 "HgN/A
3:50 PM48 °FLight rain. Broken clouds.2 mph87%29.95 "HgN/A
3:20 PM48 °FLight rain. Partly sunny.5 mph82%29.95 "HgN/A
2:50 PM48 °FLight rain. Partly sunny.5 mph87%29.95 "Hg5 mi
2:20 PM48 °FLight rain. Partly sunny.5 mph87%29.95 "HgN/A
1:50 PM48 °FLight rain. Partly sunny.5 mph87%29.95 "HgN/A
1:20 PM48 °FLight rain. Partly sunny.6 mph87%29.95 "HgN/A
12:50 PM48 °FLight rain. Broken clouds.3 mph87%29.95 "HgN/A
12:20 PM48 °FLight rain. Partly sunny.3 mph82%29.95 "HgN/A
11:50 AM46 °FPartly sunny.3 mph87%29.95 "Hg5 mi
11:20 AM46 °FPartly sunny.5 mph87%29.95 "Hg5 mi
10:50 AM46 °FBroken clouds.3 mph87%29.95 "Hg4 mi
10:20 AM45 °FScattered clouds.2 mph93%29.95 "Hg4 mi
9:50 AM45 °FFog.2 mph93%29.95 "Hg3 mi
9:20 AM43 °FFog.3 mph93%29.95 "Hg3 mi
8:50 AM41 °FQuite cool.3 mph100%29.95 "Hg3 mi
8:20 AM41 °FQuite cool.3 mph93%29.95 "Hg2 mi
7:50 AM41 °FQuite cool.5 mph93%29.95 "Hg2 mi
7:20 AM41 °FQuite cool.2 mph93%29.95 "Hg3 mi
6:50 AM41 °FFog.3 mph93%29.92 "Hg3 mi
6:20 AM43 °FPassing clouds.5 mph93%29.92 "Hg4 mi
5:50 AM43 °FPassing clouds.6 mph93%29.92 "Hg4 mi
5:20 AM43 °FPassing clouds.5 mph93%29.92 "Hg6 mi
4:50 AM45 °FPassing clouds.6 mph93%29.92 "Hg6 mi
4:20 AM45 °FPassing clouds.6 mph93%29.92 "Hg6 mi
3:50 AM45 °FPassing clouds.6 mph93%29.92 "Hg6 mi
3:20 AM45 °FPassing clouds.6 mph93%29.95 "Hg6 mi
Weather by CustomWeather, © 2016

See weather overviewHow to use our weather pages